Weather History for Dansville, NY

Change the Weather History Date:

Wednesday, March 20, 2013

  Actual Average Record
Temperature  
Mean Temperature 28 °F -  
Max Temperature 35 °F 45 °F 75 °F (2012)
Min Temperature 23 °F 22 °F -5 °F (1993)
Degree Days  
Heating Degree Days 36    
Moisture  
Dew Point 19 °F    
Average Humidity 71    
Maximum Humidity 86    
Minimum Humidity 48    
Precipitation  
Precipitation 0.01 in - - ()
Sea Level Pressure  
Sea Level Pressure 29.86 in    
Wind  
Wind Speed 5 mph (WNW)    
Max Wind Speed 12 mph    
Max Gust Speed 22 mph    
Visibility 8 miles    
Events Fog , Snow    
Averages and records for this station are not official NWS values.
T = Trace of Precipitation, MM = Missing Value Source: NWS Daily Summary

Daily Weather History Graph

Daily Weather History Graph

Search for Another Location

Airport:

Trip Planner

Search our weather history database for the weather conditions in past years. The results will help you decide how hot, cold, wet, or windy it might be!

Date:

Astronomy

Mar. 20, 2013 Rise Set
Actual Time 7:13 AM EDT 7:23 PM EDT
Civil Twilight 6:45 AM EDT 7:51 PM EDT
Nautical Twilight 6:12 AM EDT 8:24 PM EDT
Astronomical Twilight 5:39 AM EDT 8:58 PM EDT
Moon 12:49 PM EDT (3/20) 2:58 AM EDT (3/20)
Length of Visible Light 13h 05m
Length of Day
12h 09m
First Quarter, 59% of the Moon is Illuminated
Mar 20
First Quarter
Mar 27
Full
Apr 3
Last Quarter
Apr 10
New
Apr 18
First Quarter

Hourly Weather History & Observations

Time (EDT) Temp. Windchill Dew Point Humidity Pressure Visibility Wind Dir Wind Speed Gust Speed Precip Events Conditions
12:21 AM 26.6 °F 21.2 °F 21.2 °F 80% 29.84 in 4.0 mi NNW 4.6 mph - 0.00 in Snow Light Snow
12:33 AM 26.6 °F 22.6 °F 21.2 °F 80% 29.84 in 2.5 mi NNW 3.5 mph - 0.00 in Snow Light Snow
12:42 AM 26.6 °F - 21.2 °F 80% 29.83 in 4.0 mi Calm Calm - 0.00 in Snow Light Snow
12:54 AM 26.1 °F 19.4 °F 21.0 °F 81% 29.88 in 5.0 mi Variable 5.8 mph - 0.00 in Snow Light Snow
1:54 AM 26.1 °F 20.5 °F 19.9 °F 78% 29.88 in 7.0 mi NW 4.6 mph - 0.00 in   Overcast
2:54 AM 24.1 °F 19.7 °F 19.0 °F 81% 29.88 in 8.0 mi North 3.5 mph - 0.00 in   Overcast
3:27 AM 24.8 °F - 19.4 °F 80% 29.83 in 10.0 mi Calm Calm - N/A   Scattered Clouds
3:54 AM 25.0 °F 19.3 °F 19.0 °F 78% 29.88 in 10.0 mi WNW 4.6 mph - N/A   Clear
4:54 AM 25.0 °F - 17.1 °F 72% 29.87 in 10.0 mi Calm Calm - N/A   Overcast
5:54 AM 23.0 °F - 17.1 °F 78% 29.87 in 10.0 mi Calm Calm - N/A   Scattered Clouds
6:54 AM 24.1 °F - 18.0 °F 77% 29.88 in 10.0 mi Calm Calm - 0.00 in   Overcast
7:54 AM 24.1 °F 17.0 °F 19.0 °F 81% 29.88 in 10.0 mi SE 5.8 mph - N/A   Overcast
8:54 AM 27.0 °F 21.6 °F 21.9 °F 81% 29.88 in 7.0 mi SE 4.6 mph - 0.00 in Snow Light Snow
9:54 AM 30.0 °F 23.2 °F 21.0 °F 69% 29.88 in 7.0 mi West 6.9 mph - 0.00 in Snow Light Snow
10:54 AM 32.0 °F 23.6 °F 19.0 °F 59% 29.87 in 10.0 mi West 10.4 mph 19.6 mph 0.00 in   Mostly Cloudy
11:54 AM 32.0 °F 25.6 °F 17.1 °F 54% 29.86 in 10.0 mi West 6.9 mph - N/A   Overcast
12:54 PM 33.1 °F 25.5 °F 16.0 °F 50% 29.85 in 10.0 mi West 9.2 mph 21.9 mph N/A   Overcast
1:33 PM 30.2 °F 21.3 °F 23.0 °F 75% 29.81 in 1.8 mi NW 10.4 mph - 0.00 in Snow Light Snow
1:40 PM 28.4 °F 20.4 °F 24.8 °F 86% 29.81 in 0.5 mi WNW 8.1 mph 16.1 mph 0.00 in Snow Snow
1:54 PM 30.0 °F 21.7 °F 26.1 °F 85% 29.86 in 1.2 mi NW 9.2 mph - 0.01 in Snow Light Snow
2:02 PM 28.4 °F 22.2 °F 24.8 °F 86% 29.81 in 0.5 mi WSW 5.8 mph - 0.00 in Fog , Snow Snow
2:12 PM 30.2 °F - 26.6 °F 86% 29.80 in 1.0 mi Calm Calm - 0.00 in Snow Light Snow
2:21 PM 30.2 °F 24.3 °F 24.8 °F 80% 29.80 in 9.0 mi Variable 5.8 mph - 0.00 in Snow Light Snow
2:28 PM 33.8 °F 26.4 °F 21.2 °F 60% 29.80 in 9.0 mi West 9.2 mph 19.6 mph 0.00 in   Overcast
2:54 PM 32.0 °F 25.6 °F 21.0 °F 64% 29.84 in 10.0 mi West 6.9 mph 18.4 mph 0.00 in   Overcast
3:54 PM 33.1 °F 25.5 °F 17.1 °F 52% 29.84 in 10.0 mi WNW 9.2 mph 18.4 mph N/A   Overcast
4:54 PM 34.0 °F 25.5 °F 16.0 °F 48% 29.86 in 10.0 mi WNW 11.5 mph 20.7 mph N/A   Mostly Cloudy
5:54 PM 30.9 °F 21.7 °F 16.0 °F 54% 29.87 in 10.0 mi WNW 11.5 mph 19.6 mph N/A   Scattered Clouds
6:54 PM 28.9 °F 20.4 °F 14.0 °F 54% 29.88 in 10.0 mi WNW 9.2 mph - N/A   Partly Cloudy
7:54 PM 28.0 °F 24.2 °F 14.0 °F 56% 29.88 in 10.0 mi Variable 3.5 mph - N/A   Clear
8:54 PM 27.0 °F - 12.9 °F 56% 29.88 in 10.0 mi Calm Calm - N/A   Clear
9:54 PM 25.0 °F - 15.1 °F 66% 29.88 in 10.0 mi Calm Calm - N/A   Mostly Cloudy
10:54 PM 26.1 °F 20.5 °F 15.1 °F 63% 29.88 in 10.0 mi SSW 4.6 mph - N/A   Overcast
11:54 PM 25.0 °F 19.3 °F 18.0 °F 75% 29.88 in 10.0 mi Variable 4.6 mph - 0.00 in   Overcast